Simultaneous Nadir Overpasses (SNOs) Predictions

Prediction of SNOs between METOP-B and TERRA Satellite Orbit:

Table of predicted SNOs for the next 14.0 days since TLE Epoch: 8/31/2024
Index Date (METOP-B) Time (METOP-B) Lat,Lon (METOP-B) SZA (METOP-B ) Date (TERRA) Time (TERRA) Lat,Lon (TERRA) SZA (TERRA ) Distance(km) Time Diff (sec)
1 09/02/2024 07:17:29 -79.87, -91.95 107.40 09/02/2024 07:17:45 -79.87, -92.03 107.41 1.80 16
2 09/02/2024 08:08:04 80.04, 76.99 72.87 09/02/2024 08:07:01 80.03, 76.90 72.84 2.02 63
3 09/04/2024 21:47:46 -79.89, 50.67 106.40 09/04/2024 21:47:54 -79.89, 50.57 106.40 2.01 8
4 09/04/2024 22:38:21 80.06,-140.40 73.87 09/04/2024 22:37:10 80.05,-140.55 73.83 3.07 71
5 09/07/2024 12:18:03 -79.90,-166.83 105.40 09/07/2024 12:18:02 -79.90,-166.92 105.41 1.65 1
6 09/10/2024 01:57:45 79.70, 166.44 75.29 09/10/2024 01:58:53 79.70, 166.40 75.31 0.75 68
7 09/10/2024 02:48:20 -79.90, -24.45 104.41 09/10/2024 02:48:09 -79.90, -24.49 104.42 0.71 11
8 09/12/2024 16:28:02 79.69, -51.30 76.27 09/12/2024 16:28:59 79.68, -51.29 76.28 0.23 57



Historial Predications of SNOs between METOP-B and TERRA
